Weather History for Dumas, TX

Change the Weather History Date:

Thursday, June 27, 2013

  Actual Average (KBGD) Record (KBGD)
Temperature  
Mean Temperature 86 °F 80 °F  
Max Temperature 106 °F 92 °F 108 °F (1998)
Min Temperature 67 °F 67 °F 54 °F (1969)
Degree Days  
Heating Degree Days 0 0  
Month to date heating degree days 0  
Since 1 June heating degree days 0  
Since 1 July heating degree days 3763  
Cooling Degree Days 21 15  
Month to date cooling degree days 313  
Year to date cooling degree days 510  
Since 1 June cooling degree days 313  
Growing Degree Days 36 (Base 50)    
Moisture  
Dew Point 55 °F    
Average Humidity 40    
Maximum Humidity 79    
Minimum Humidity 13    
Precipitation  
Precipitation 0.02 in 0.09 in 1.23 in (2000)
Month to date precipitation 2.92  
Year to date precipitation 9.97  
Snow  
Snow 0.00 in - 0.00 in (2013)
Month to date snowfall  
Since 1 June snowfall  
Since 1 July snowfall  
Snow Depth -    
Sea Level Pressure  
Sea Level Pressure 30.05 in    
Wind  
Wind Speed 10 mph (SSE)    
Max Wind Speed 23 mph    
Max Gust Speed 34 mph    
Visibility 10 miles    
Events Rain    
T = Trace of Precipitation, MM = Missing Value Source: NWS Daily Summary

Daily Weather History Graph

Daily Weather History Graph

Search for Another Location

Airport:

Trip Planner

Search our weather history database for the weather conditions in past years. The results will help you decide how hot, cold, wet, or windy it might be!

Date:

Astronomy

Jun. 27, 2013 Rise Set
Actual Time 6:33 AM CDT 9:08 PM CDT
Civil Twilight 6:03 AM CDT 9:38 PM CDT
Nautical Twilight 5:26 AM CDT 10:15 PM CDT
Astronomical Twilight 4:44 AM CDT 10:57 PM CDT
Moon No Moon Rise 11:27 AM CDT (6/27)
Length of Visible Light 15h 34m
Length of Day
14h 34m
Waning Gibbous, 76% of the Moon is Illuminated
Jun 27
Waning Gibbous
Jun 29
Last Quarter
Jul 8
New
Jul 15
First Quarter
Jul 22
Full

Hourly Weather History & Observations

Time (CDT) Temp. Heat Index Dew Point Humidity Pressure Visibility Wind Dir Wind Speed Gust Speed Precip Events Conditions
12:15 AM 81.9 °F 82.5 °F 61.0 °F 49% 30.02 in 10.0 mi ESE 10.4 mph - N/A   Clear
12:35 AM 80.8 °F 81.6 °F 61.2 °F 51% 30.02 in 10.0 mi ESE 10.4 mph - N/A   Clear
1:15 AM 79.0 °F - 62.2 °F 56% 30.02 in 10.0 mi ESE 9.2 mph - N/A   Clear
1:35 AM 77.9 °F - 62.6 °F 59% 30.02 in 10.0 mi ESE 9.2 mph - N/A   Clear
1:55 AM 77.4 °F - 63.0 °F 61% 30.02 in 10.0 mi SE 8.1 mph - N/A   Clear
2:15 AM 76.6 °F - 63.0 °F 62% 30.02 in 10.0 mi SE 9.2 mph - N/A   Clear
2:35 AM 75.4 °F - 63.0 °F 65% 30.02 in 10.0 mi SE 8.1 mph - N/A   Clear
2:55 AM 76.1 °F - 63.5 °F 65% 30.02 in 10.0 mi SE 9.2 mph - N/A   Clear
3:15 AM 75.6 °F - 63.5 °F 66% 30.02 in 10.0 mi SE 9.2 mph - N/A   Clear
3:35 AM 75.6 °F - 63.1 °F 65% 30.02 in 10.0 mi SE 9.2 mph - N/A   Clear
3:55 AM 75.4 °F - 63.0 °F 65% 30.02 in 10.0 mi SE 9.2 mph - N/A   Clear
4:15 AM 74.5 °F - 62.8 °F 67% 30.02 in 10.0 mi SE 8.1 mph - N/A   Clear
4:35 AM 72.9 °F - 62.6 °F 70% 30.02 in 10.0 mi SE 9.2 mph - N/A   Clear
4:55 AM 72.0 °F - 62.2 °F 71% 30.02 in 10.0 mi SE 8.1 mph - N/A   Clear
5:15 AM 71.8 °F - 62.1 °F 71% 30.02 in 10.0 mi SSE 10.4 mph - N/A   Clear
5:35 AM 70.5 °F - 61.5 °F 73% 30.03 in 10.0 mi SE 6.9 mph - N/A   Clear
5:55 AM 70.2 °F - 61.2 °F 73% 30.03 in 10.0 mi SSE 9.2 mph - N/A   Clear
6:15 AM 69.3 °F - 61.2 °F 75% 30.04 in 10.0 mi SE 8.1 mph - N/A   Clear
6:35 AM 67.8 °F - 60.6 °F 78% 30.05 in 10.0 mi SE 6.9 mph - N/A   Clear
6:55 AM 67.3 °F - 60.3 °F 78% 30.05 in 10.0 mi SE 8.1 mph - N/A   Clear
7:15 AM 68.0 °F - 61.2 °F 79% 30.06 in 10.0 mi SE 6.9 mph - N/A   Clear
7:55 AM 73.0 °F - 62.6 °F 70% 30.07 in 10.0 mi SSE 5.8 mph - N/A   Clear
9:15 AM 84.6 °F 85.0 °F 61.5 °F 46% 30.09 in 10.0 mi South 13.8 mph - N/A   Clear
9:35 AM 86.2 °F 86.3 °F 61.0 °F 43% 30.09 in 10.0 mi South 12.7 mph - N/A   Clear
9:55 AM 88.2 °F 87.8 °F 60.3 °F 39% 30.08 in 10.0 mi SSW 13.8 mph 19.6 mph N/A   Clear
10:15 AM 89.4 °F 88.7 °F 59.4 °F 36% 30.08 in 10.0 mi SSW 15.0 mph - N/A   Clear
10:35 AM 91.2 °F 90.2 °F 58.3 °F 33% 30.08 in 10.0 mi SSW 15.0 mph 19.6 mph N/A   Clear
10:55 AM 91.9 °F 90.8 °F 57.9 °F 32% 30.08 in 10.0 mi SSW 12.7 mph - N/A   Clear
11:35 AM 94.3 °F 93.0 °F 57.6 °F 29% 30.09 in 10.0 mi SSW 10.4 mph - N/A   Clear
11:55 AM 95.9 °F 94.2 °F 56.1 °F 26% 30.09 in 10.0 mi South 11.5 mph - N/A   Clear
12:15 PM 97.3 °F 95.8 °F 56.3 °F 25% 30.08 in 10.0 mi SSW 10.4 mph - N/A   Clear
12:35 PM 99.7 °F 97.8 °F 54.3 °F 22% 30.08 in 10.0 mi SSW 10.4 mph 17.3 mph N/A   Clear
12:55 PM 100.4 °F 98.4 °F 53.6 °F 21% 30.08 in 10.0 mi South 10.4 mph 17.3 mph N/A   Clear
1:15 PM 101.1 °F - 51.4 °F 19% 30.08 in 10.0 mi SW 13.8 mph 18.4 mph N/A   Clear
1:35 PM 101.8 °F - 49.8 °F 17% 30.07 in 10.0 mi SW 12.7 mph 20.7 mph N/A   Clear
1:55 PM 102.7 °F - 49.6 °F 17% 30.07 in 10.0 mi SE 8.1 mph 16.1 mph N/A   Clear
2:15 PM 104.2 °F - 47.8 °F 15% 30.07 in 10.0 mi SSW 11.5 mph 18.4 mph N/A   Clear
2:35 PM 102.6 °F - 46.2 °F 15% 30.06 in 10.0 mi SE 3.5 mph - N/A   Clear
2:55 PM 102.6 °F - 45.7 °F 15% 30.06 in 10.0 mi WSW 4.6 mph - N/A   Clear
3:15 PM 104.0 °F - 45.5 °F 14% 30.05 in 10.0 mi WSW 6.9 mph 16.1 mph N/A   Clear
3:35 PM 104.5 °F - 44.8 °F 13% 30.05 in 10.0 mi SSW 5.8 mph 16.1 mph N/A   Clear
3:55 PM 104.5 °F - 45.0 °F 13% 30.04 in 10.0 mi East 3.5 mph - N/A   Clear
4:15 PM 105.8 °F - 47.7 °F 14% 30.03 in 10.0 mi SE 11.5 mph - N/A   Clear
4:35 PM 105.6 °F - 45.7 °F 13% 30.02 in 10.0 mi SE 8.1 mph - N/A   Clear
4:55 PM 102.6 °F - 50.5 °F 17% 30.01 in 10.0 mi SE 21.9 mph 29.9 mph N/A   Clear
5:15 PM 99.1 °F - 50.0 °F 19% 30.02 in 10.0 mi SSE 17.3 mph 27.6 mph N/A   Clear
5:35 PM 102.6 °F - 47.7 °F 16% 30.01 in 10.0 mi SSE 20.7 mph 24.2 mph N/A   Clear
5:55 PM 103.3 °F - 45.9 °F 14% 30.00 in 10.0 mi SSE 16.1 mph 20.7 mph N/A   Clear
6:15 PM 102.7 °F - 46.8 °F 15% 30.00 in 10.0 mi SSE 13.8 mph - N/A   Clear
6:35 PM 102.6 °F - 47.1 °F 15% 29.99 in 10.0 mi South 13.8 mph 20.7 mph N/A   Clear
6:55 PM 102.7 °F - 46.4 °F 15% 29.98 in 10.0 mi South 13.8 mph 19.6 mph N/A   Clear
7:15 PM 102.0 °F - 46.9 °F 16% 29.99 in 10.0 mi South 16.1 mph - N/A   Clear
7:35 PM 100.9 °F - 47.1 °F 16% 29.98 in 10.0 mi South 13.8 mph - N/A   Clear
7:55 PM 99.0 °F - 47.5 °F 17% 29.98 in 10.0 mi SSW 12.7 mph 19.6 mph N/A   Clear
8:15 PM 98.1 °F - 47.3 °F 18% 30.00 in 10.0 mi SSW 12.7 mph - N/A   Clear
8:35 PM 96.4 °F - 47.3 °F 19% 30.01 in 10.0 mi SSW 10.4 mph - N/A   Clear
8:55 PM 94.1 °F - 47.3 °F 20% 30.01 in 10.0 mi South 8.1 mph - N/A   Clear
9:15 PM 90.7 °F - 49.1 °F 24% 30.05 in 10.0 mi East 23.0 mph 31.1 mph N/A   Scattered Clouds
9:35 PM 87.8 °F 85.7 °F 53.4 °F 31% 30.06 in 7.0 mi East 17.3 mph 34.5 mph N/A Rain Light Rain
9:55 PM 85.1 °F - 52.9 °F 33% 30.15 in 5.0 mi NNW 20.7 mph 28.8 mph N/A   Haze
10:15 PM 79.2 °F - 57.9 °F 48% 30.13 in 7.0 mi East 9.2 mph 17.3 mph 0.02 in Rain Light Rain
10:35 PM 77.2 °F - 59.0 °F 53% 30.14 in 10.0 mi East 10.4 mph - 0.02 in   Scattered Clouds
10:55 PM 76.5 °F - 60.8 °F 58% 30.14 in 10.0 mi SSW 11.5 mph 16.1 mph 0.02 in   Clear
11:15 PM 76.6 °F - 61.0 °F 58% 30.14 in 10.0 mi SSE 9.2 mph - N/A   Clear
11:35 PM 76.8 °F - 59.7 °F 55% 30.13 in 10.0 mi East 11.5 mph - N/A   Clear
11:55 PM 77.5 °F - 59.7 °F 54% 30.14 in 10.0 mi SSE 4.6 mph - N/A   Clear